STARLINK-3141 (49459 NORAD) Tracking and Keplerian Element Data

This shows tracking and keplerian element data for the satellite.

Feedback or suggestion? Click here.




ElementValue
Catalog49459
NameSTARLINK-3141
Epoch Orbit371
Epoch Day339.91667824
Epoch Year2021
RAAN22.1935
Inclination53.2185
Eccentricity0.0002022
Argument of Perigee32.6934
Mean Anonmoly57.9039
Mean Motion15.73199398
Decay Rate0.00048763
L11 49459U 21104BD 21339.91667824 .00048763 00000+0 34984-3 0 9998
L22 49459 53.2185 22.1935 0002022 32.6934 57.9039 15.73199398 3711

Live tracking and technical data element details for STARLINK-3141 (NORAD 49459). STARLINK-3141 can be tracked NOW for your location showing map with azimuth and elevation plus other details from your city location.

Track the satellite on the map from your city or location and see movement details for azimuth, elevation, latitude, longitude, range, height, and movement on the map or in text.







IsCatalogInMostPopularTable: catalog: 49459, numindb: 4
Update: records affected: 1



GetName: 49459 STARLINK-3141

Hit Count: updated at: Wed, 08 Dec 2021 16:02:14 GMT